Regional Weather Roundup
Issued by NWS

Home | Current Version | Previous Version | Graphics & Text | Print | Product List | Glossary On
Versions: 1 2 3 4 5 6 7 8 9 10 11 12 13 14 15 16 17 18 19 20 21 22 23 24 25 26 27 28 29 30 31 32 33 34 35 36 37 38 39 40 41 42 43 44 45 46 47 48 49 50
000
ASUS45 KBOU 260907
RWRCO

WEATHER ROUNDUP FOR COLORADO
NATIONAL WEATHER SERVICE DENVER/BOULDER CO
200 AM MST WED NOV 26 2014

NOTE: "FAIR" INDICATES FEW OR NO CLOUDS BELOW 12000 FEET WITH NO
SIGNIFICANT WEATHER AND/OR OBSTRUCTIONS TO VISIBILITY.

COZ001>005-013-030-031-261000-
...NORTHWEST COLORADO...

CITY           SKY/WX    TMP DP  RH WIND       PRES   REMARKS
CRAIG          CLOUDY    31  25  78 E9        30.22S WCI  23
HAYDEN         CLOUDY    27  23  86 CALM      30.22R
MEEKER         CLOUDY    34  25  69 E3        30.26R
MOUNT WERNER   NOT AVBL
STEAMBOAT SPGS CLOUDY    31  31  99 CALM      30.22R
WALDEN         CLOUDY    32  23  69 W9        30.11R WCI  24
$$

COZ006>008-011-261000-
...WEST CENTRAL VALLEYS...

CITY           SKY/WX    TMP DP  RH WIND       PRES   REMARKS
GRAND JUNCTION MOCLDY    31  19  61 CALM      30.32R
MONTROSE       CLOUDY    32  23  69 SE5       30.33S WCI  27
EAGLE          CLOUDY    36  23  60 S7        30.28R
RIFLE          CLOUDY    28  24  85 CALM      30.33R
DELTA          CLOUDY    36  26  67 CALM      30.33R
NUCLA          CLOUDY    37  23  56 E9        30.37S
$$

COZ017>023-064>068-261000-
...SOUTHWEST COLORADO...

CITY           SKY/WX    TMP DP  RH WIND       PRES   REMARKS
DURANGO        CLEAR     25  13  60 E8        30.30S WCI  16
CORTEZ         CLEAR     21  13  71 E10       30.36S WCI  10
PAGOSA SPRINGS CLEAR     18  10  69 CALM      30.32S
TELLURIDE      NOT AVBL
WOLF CREEK PAS PTCLDY    18  12  79 MISG      30.31S
$$

COZ009-010-012-014-032>034-037-058>063-261000-
...CENTRAL COLORADO...

CITY           SKY/WX    TMP DP  RH WIND       PRES   REMARKS
ASPEN          CLOUDY    24  21  88 SW6       30.29R WCI  17
BUENA VISTA    PTCLDY    33  21  60 W14G24    30.15R WCI  23
COPPER MTN     CLOUDY    25  19  80 MISG      30.21R
BERTHOUD PASS  NOT AVBL
COTTONWOOD PAS LGT SNOW  32  21  64 W33G56    30.12R WCI  17
GUNNISON       CLOUDY    27  21  80 CALM      30.34R
KREMMLING      CLOUDY    32  27  80 W22G29    30.19R WCI  19
LEADVILLE      LGT SNOW  23  21  92 N12       30.23R FOG     WCI  12
MONARCH PASS   CLOUDY    19  16  86 W47G68    30.29R WCI  -3
SALIDA         PTCLDY    40  22  48 W29G38    30.23R
SUNLIGHT       CLOUDY   N/A N/A N/A CALM      30.29R
WILKERSON PASS MOCLDY    21  19  93 W13G21    30.15S WCI   9
$$

COZ069>075-261000-
...SAN LUIS VALLEY/SANGRE DE CRISTO MOUNTAINS...

CITY           SKY/WX    TMP DP  RH WIND       PRES   REMARKS
ALAMOSA        PTCLDY     9   4  80 S8        30.26R WCI  -3
LA VETA PASS   PTCLDY    21  12  68 S13G23    30.17R WCI   9
SAGUACHE       NOT AVBL
$$

COZ035-036-038>040-261000-
...NORTHERN COLORADO FRONT RANGE...

CITY           SKY/WX    TMP DP  RH WIND       PRES   REMARKS
DENVER INTL AP FLURRIES  28  24  85 NE12      30.17R WCI  18
DMNS CITY PARK   N/A     30  28  92 S3        30.17R
AURORA         FLURRIES  28  26  93 NE6       30.17R WCI  22
FRONT RANGE AP CLOUDY    30  28  93 CALM      30.17R
ERIE MUNI ARPT FLURRIES  30  25  80 NE6       30.16R WCI  24
BOULDER MUN AP CLOUDY    32  28  86 CALM      30.16R
CENTENNIAL     LGT SNOW  27  25  92 E6        30.15R FOG     WCI  20
BROOMFIELD     LGT SNOW  30  28  93 CALM      30.16R
FORT COLLINS   CLOUDY    28  21  74 E8        30.17R WCI  20
LONGMONT       FLURRIES  32  27  81 E9        30.19R WCI  24
$$

COZ041-046-047-076>085-087-088-261000-
...PIKES PEAK/PALMER DIVIDE AND SOUTHERN FOOTHILLS...

CITY           SKY/WX    TMP DP  RH WIND       PRES   REMARKS
COLO. SPRINGS  PTCLDY    27  23  85 CALM      30.10R
A. F. ACADEMY  CLOUDY    27  24  86 N17G25    30.08R WCI  15
ELLICOTT       NOT AVBL
FALCON         NOT AVBL
FORT CARSON    CLOUDY    29  25  86 N3        30.10R
LIMON          CLOUDY    27  25  92 N15       30.13R WCI  15
MONUMENT HILL  CLOUDY    25  23  93 N6        30.11R FOG     WCI  18
TRINIDAD       CLEAR     30  23  75 NE15      30.14R WCI  19
$$

COZ042>045-048>051-090-091-261000-
...NORTHEAST COLORADO...

CITY           SKY/WX    TMP DP  RH WIND       PRES   REMARKS
GREELEY ARPT   CLOUDY    28  21  74 CALM      30.18R
AKRON          LGT SNOW  28  26  92 W16       30.12R FOG     WCI  16
BURLINGTON     LGT SNOW  32  30  92 NW18      30.13R FOG     WCI  20
WRAY           CLOUDY    34  30  86 W16G22    30.12R WCI  24
STERLING       CLOUDY    34  28  80 NW16      30.11R WCI  23
HOLYOKE        CLOUDY    34  28  80 NW12G18   30.09R WCI  25
FORT MORGAN    FLURRIES  28  26  91 W8        30.17R WCI  20
$$

COZ086-089-092>099-261000-
...SOUTHEAST COLORADO...

CITY           SKY/WX    TMP DP  RH WIND       PRES   REMARKS
PUEBLO         CLEAR     32  25  75 S3        30.16R
LA JUNTA       CLEAR     30  24  78 NW5       30.16R WCI  25
LAMAR          CLEAR     30  26  85 N8        30.13R WCI  22
SPRINGFIELD      N/A     32  27  81 N16G25    30.11R WCI  21
$$


USA.gov is the U.S. government's official web portal to all federal, state and local government web resources and services.